DW6648 Weather Reports


time (UTC)temp
C
wind
direction
speed
KPH
gust
KPH
rain 1hr
cm
rain 24hr
cm
rain mn
cm
humidity
%
barometer
mb
20260507135309 17 170 0.0 0.0 0.00 0.00 0.00 54 1014.9
20260507133809 17 143 0.0 0.0 0.00 0.00 0.00 53 1014.9
20260507132809 17 162 0.0 0.0 0.00 0.00 0.00 51 1014.9
20260507131808 17 125 0.0 0.0 0.00 0.00 0.00 52 1014.8
20260507125308 17 166 0.0 0.0 0.00 0.00 0.00 52 1014.9
20260507124308 17 202 0.0 0.0 0.00 0.00 0.00 53 1014.9
20260507122308 16 203 0.0 0.0 0.00 0.00 0.00 56 1015.0
20260507120808 16 163 0.0 0.0 0.00 0.00 0.00 57 1015.0
20260507120307 16 172 0.0 0.0 0.00 0.00 0.00 56 1015.0
20260507115806 16 175 0.0 0.0 0.00 0.00 0.00 56 1015.1
20260507114806 17 193 0.0 0.0 0.00 0.00 0.00 54 1015.1
20260507114306 17 184 0.0 0.0 0.00 0.00 0.00 55 1015.1
20260507113306 17 190 0.0 0.0 0.00 0.00 0.00 56 1015.0
20260507112307 16 202 0.0 0.0 0.00 0.00 0.00 60 1015.1
20260507110306 16 155 0.0 0.0 0.00 0.00 0.00 60 1015.2
20260507105805 16 189 0.0 0.0 0.00 0.00 0.00 61 1015.2
20260507103305 15 186 0.0 0.0 0.00 0.00 0.00 62 1015.2
20260507102806 15 174 0.0 0.0 0.00 0.00 0.00 64 1015.2
20260507102307 15 211 0.0 0.0 0.00 0.00 0.00 64 1015.1
20260507100305 15 195 0.0 0.0 0.00 0.00 0.00 67 1015.2
20260507095805 15 156 0.0 0.0 0.00 0.00 0.00 68 1015.2
20260507095306 14 188 0.0 0.0 0.00 0.00 0.00 68 1015.2
20260507094804 14 169 0.0 0.0 0.00 0.00 0.00 69 1015.2
20260507094304 14 165 0.0 0.0 0.00 0.00 0.00 69 1015.1
20260507092306 13 194 0.0 0.0 0.00 0.00 0.00 71 1015.2
20260507082831 12 111 0.0 0.0 0.00 0.00 0.00 78 1015.2
20260507082331 12 138 0.0 0.0 0.00 0.00 0.00 78 1015.2
20260507081330 11 115 0.0 0.0 0.00 0.00 0.00 78 1015.2
20260507075830 11 101 0.0 0.0 0.00 0.00 0.00 78 1015.3
20260507074329 10 107 0.0 0.0 0.00 0.00 0.00 79 1015.2
20260507073829 10 87 0.0 0.0 0.00 0.00 0.00 79 1015.2
20260507073330 10 102 0.0 0.0 0.00 0.00 0.00 80 1015.1
20260507072329 10 137 0.0 0.0 0.00 0.00 0.00 81 1015.1
20260507071830 10 122 0.0 0.0 0.00 0.00 0.00 82 1015.1
20260507070329 8 83 0.0 0.0 0.00 0.00 0.00 83 1014.9
20260507063330 7 109 0.0 0.0 0.00 0.00 0.00 83 1014.8
20260507062828 7 109 0.0 0.0 0.00 0.00 0.00 83 1014.8
20260507062329 7 109 0.0 0.0 0.00 0.00 0.00 83 1014.8
20260507060830 7 122 0.0 0.0 0.00 0.00 0.00 83 1014.7
20260507060328 7 87 0.0 0.0 0.00 0.00 0.00 83 1014.6
20260507055827 7 110 0.0 0.0 0.00 0.00 0.00 83 1014.5
20260507055328 7 32 0.0 0.0 0.00 0.00 0.00 83 1014.5
20260507054827 7 32 0.0 0.0 0.00 0.00 0.00 83 1014.6
20260507054327 7 32 0.0 0.0 0.00 0.00 0.00 83 1014.6
20260507052827 6 5 0.0 0.0 0.00 0.00 0.00 83 1014.5
20260507052327 6 1 0.0 0.0 0.00 0.00 0.00 82 1014.6
20260507051827 6 340 0.0 0.0 0.00 0.00 0.00 82 1014.6
20260507051326 6 346 0.0 0.0 0.00 0.00 0.00 82 1014.6
20260507050326 6 44 0.0 0.0 0.00 0.00 0.00 82 1014.4
20260507044327 6 116 0.0 0.0 0.00 0.00 0.00 82 1014.5
20260507043827 6 115 0.0 0.0 0.00 0.00 0.00 82 1014.4
20260507042826 6 116 0.0 0.0 0.00 0.03 0.00 82 1014.4
20260507042326 6 115 0.0 0.0 0.00 0.03 0.00 81 1014.4
20260507041826 6 115 0.0 0.0 0.00 0.05 0.00 81 1014.4
20260507041326 6 115 0.0 0.0 0.00 0.05 0.00 81 1014.3
20260507032324 6 115 0.0 0.0 0.00 0.08 0.00 80 1014.4
20260507030824 6 115 0.0 0.0 0.00 0.08 0.00 80 1014.4
20260507024823 6 115 0.0 0.0 0.00 0.08 0.00 80 1014.2
20260507024323 6 115 0.0 0.0 0.00 0.08 0.00 80 1014.1
20260507023824 6 114 0.0 0.0 0.00 0.08 0.00 80 1014.1
20260507023323 6 114 0.0 0.0 0.00 0.08 0.00 79 1014.1
20260507022824 6 102 0.0 0.0 0.00 0.08 0.00 79 1014.1
20260507020823 6 42 0.0 0.0 0.00 0.08 0.00 80 1014.1
20260507020323 6 92 0.0 0.0 0.00 0.08 0.00 80 1014.1
20260507015822 6 97 0.0 0.0 0.00 0.08 0.00 80 1014.1
20260507015322 6 48 0.0 0.0 0.00 0.08 0.00 79 1014.1
20260507014822 6 68 0.0 0.0 0.00 0.08 0.00 79 1014.1
20260507014322 6 11 0.0 0.0 0.00 0.08 0.00 79 1014.1
20260507012321 6 86 0.0 0.0 0.00 0.08 0.00 77 1014.1
20260507011821 6 86 0.0 0.0 0.00 0.08 0.00 77 1014.1
20260507010821 6 86 0.0 0.0 0.00 0.08 0.00 76 1014.1
20260507010321 6 86 0.0 0.0 0.00 0.08 0.00 76 1014.1
20260507005821 6 86 0.0 0.0 0.00 0.08 0.00 76 1014.0
20260507004821 7 85 0.0 0.0 0.00 0.08 0.00 75 1014.0
20260507003322 7 86 0.0 0.0 0.00 0.08 0.00 75 1014.0
20260507001822 7 86 0.0 0.0 0.00 0.08 0.00 75 1014.1
20260507001322 7 86 0.0 0.0 0.00 0.08 0.00 74 1014.1
20260507000821 7 86 0.0 0.0 0.00 0.08 0.00 74 1014.1
20260507000322 7 86 0.0 0.0 0.00 0.08 0.00 74 1014.1
20260506234820 8 89 0.0 0.0 0.00 0.08 0.00 74 1014.1
20260506233820 8 73 0.0 0.0 0.00 0.08 0.00 73 1014.0
20260506232819 8 73 0.0 0.0 0.00 0.08 0.00 73 1014.0
20260506230828 9 73 0.0 0.0 0.00 0.08 0.00 73 1014.1
20260506230319 9 73 0.0 0.0 0.00 0.08 0.00 73 1014.0
20260506225319 10 73 0.0 0.0 0.00 0.08 0.08 73 1014.0
20260506224319 10 36 0.0 0.0 0.00 0.08 0.08 73 1014.1
20260506223319 10 36 0.0 0.0 0.00 0.08 0.08 73 1014.0
20260506222820 10 36 0.0 0.0 0.00 0.08 0.08 73 1014.0
20260506221819 10 313 0.0 0.0 0.00 0.08 0.08 73 1014.0
20260506221319 10 313 0.0 0.0 0.00 0.08 0.08 72 1014.0
20260506220819 10 314 0.0 0.0 0.00 0.08 0.08 72 1014.0
20260506215818 11 314 0.0 0.0 0.00 0.08 0.08 72 1013.9
20260506214818 11 314 0.0 0.0 0.00 0.08 0.08 71 1013.8
20260506213818 11 313 0.0 0.0 0.00 0.08 0.08 71 1013.9
20260506213319 11 313 0.0 0.0 0.00 0.08 0.08 71 1013.8
20260506212818 11 313 0.0 0.0 0.00 0.08 0.08 71 1013.9
20260506212318 11 313 0.0 0.0 0.00 0.08 0.08 71 1013.9
20260506211318 11 313 0.0 0.0 0.00 0.08 0.08 71 1013.8
20260506210317 11 313 0.0 0.0 0.00 0.08 0.08 71 1013.8
20260506205817 11 314 0.0 0.0 0.00 0.08 0.08 70 1013.8
20260506205317 11 313 0.0 0.0 0.00 0.08 0.08 70 1013.8
20260506204817 11 316 0.0 0.0 0.00 0.08 0.08 69 1013.8
20260506204318 12 317 0.0 0.0 0.00 0.08 0.08 69 1013.8
20260506203817 12 310 0.0 0.0 0.00 0.08 0.08 69 1013.7
20260506203317 12 303 0.0 0.0 0.00 0.08 0.08 68 1013.6
20260506201318 12 270 0.0 0.0 0.00 0.08 0.08 66 1013.4
20260506195816 12 232 0.0 0.0 0.00 0.08 0.08 66 1013.3
20260506195316 12 231 0.0 0.0 0.00 0.08 0.08 65 1013.2
20260506194316 13 278 0.0 0.0 0.00 0.08 0.08 63 1013.2
20260506185315 13 10 0.0 0.0 0.00 0.08 0.08 56 1012.7
20260506184315 13 9 0.0 0.0 0.00 0.08 0.08 55 1012.7
20260506183815 13 36 0.0 0.0 0.00 0.08 0.08 55 1012.6
20260506182815 13 17 0.0 0.0 0.00 0.08 0.08 55 1012.7
20260506182315 13 353 0.0 0.0 0.00 0.08 0.08 55 1012.6
20260506181314 14 8 0.0 0.0 0.00 0.08 0.08 54 1012.5
20260506180815 14 348 0.0 0.0 0.00 0.08 0.08 54 1012.5
20260506180314 14 23 0.0 0.0 0.00 0.08 0.08 54 1012.5
20260506174814 14 11 0.0 0.0 0.00 0.08 0.08 53 1012.3
20260506173814 14 0 0.0 0.0 0.00 0.08 0.08 53 1012.3
20260506173314 14 33 0.0 0.0 0.00 0.08 0.08 52 1012.3
20260506171314 14 15 0.0 0.0 0.00 0.08 0.08 53 1012.3
20260506170814 14 15 0.0 0.0 0.00 0.08 0.08 53 1012.2
20260506164813 15 29 0.0 0.0 0.00 0.08 0.08 51 1012.2
20260506163812 15 21 0.0 0.0 0.00 0.08 0.08 52 1012.3
20260506162312 15 23 0.0 0.0 0.00 0.08 0.08 49 1012.3
20260506161812 15 51 0.0 0.0 0.00 0.08 0.08 50 1012.2
20260506161312 15 25 0.0 0.0 0.00 0.08 0.08 49 1012.3
20260506160312 15 30 0.0 0.0 0.00 0.08 0.08 50 1012.2
20260506154311 15 352 0.0 0.0 0.00 0.08 0.08 49 1012.2
20260506152811 16 353 0.0 0.0 0.00 0.08 0.08 47 1012.3
20260506151311 16 17 0.0 0.0 0.00 0.08 0.08 48 1012.3
20260506150811 16 25 0.0 0.0 0.00 0.08 0.08 47 1012.3
20260506145311 16 0 0.0 0.0 0.00 0.08 0.08 48 1012.4
20260506144311 16 359 0.0 0.0 0.00 0.08 0.08 45 1012.4
20260506142810 16 10 0.0 0.0 0.00 0.08 0.08 45 1012.5
20260506141311 16 37 0.0 0.0 0.00 0.08 0.08 44 1012.5
20260506140310 16 6 0.0 0.0 0.00 0.08 0.08 44 1012.5